Time,TemperatureF,DewpointF,PressureIn,WindDirection,WindDirectionDegrees,WindSpeedMPH,WindSpeedGustMPH,Humidity,HourlyPrecipIn,Conditions,Clouds,dailyrainin,SoftwareType,DateUTC
2013-08-24 00:05:00,68.1,51.0,29.58,NNW,335,0.0,-999.0,55,-99.99,,,0.00,weatherlink.com 1.10,2013-08-24 06:05:00,
2013-08-24 00:20:00,67.8,51.0,29.58,NNW,335,0.0,-999.0,55,-99.99,,,0.00,weatherlink.com 1.10,2013-08-24 06:20:00,
2013-08-24 00:35:00,67.8,50.0,29.57,NNW,335,0.0,-999.0,54,-99.99,,,0.00,weatherlink.com 1.10,2013-08-24 06:35:00,
2013-08-24 00:50:00,67.4,51.0,29.58,NNW,335,0.0,-999.0,56,-99.99,,,0.00,weatherlink.com 1.10,2013-08-24 06:50:00,
2013-08-24 01:05:00,67.4,49.0,29.58,NNW,335,0.0,-999.0,52,-99.99,,,0.00,weatherlink.com 1.10,2013-08-24 07:05:00,
2013-08-24 01:20:00,67.4,51.0,29.58,NNW,335,0.0,-999.0,55,-99.99,,,0.00,weatherlink.com 1.10,2013-08-24 07:20:00,
2013-08-24 01:35:00,67.4,51.0,29.59,NNW,335,0.0,-999.0,56,-99.99,,,0.00,weatherlink.com 1.10,2013-08-24 07:35:00,
2013-08-24 01:50:00,67.1,51.0,29.59,NNW,335,0.0,-999.0,56,-99.99,,,0.00,weatherlink.com 1.10,2013-08-24 07:50:00,
2013-08-24 02:05:00,67.8,49.0,29.59,NNW,335,0.0,-999.0,52,-99.99,,,0.00,weatherlink.com 1.10,2013-08-24 08:05:00,
2013-08-24 02:20:00,68.1,49.0,29.59,NNW,335,0.0,-999.0,51,-99.99,,,0.00,weatherlink.com 1.10,2013-08-24 08:20:00,
2013-08-24 02:35:00,68.1,50.0,29.59,NNW,335,0.0,-999.0,53,-99.99,,,0.00,weatherlink.com 1.10,2013-08-24 08:35:00,
2013-08-24 02:50:00,67.3,50.0,29.59,NNW,335,0.0,-999.0,55,-99.99,,,0.00,weatherlink.com 1.10,2013-08-24 08:50:00,
2013-08-24 03:05:00,66.9,51.0,29.58,NNW,335,0.0,-999.0,56,-99.99,,,0.00,weatherlink.com 1.10,2013-08-24 09:05:00,
2013-08-24 03:20:00,67.4,51.0,29.58,NNE,24,2.0,-999.0,55,-99.99,,,0.00,weatherlink.com 1.10,2013-08-24 09:20:00,
2013-08-24 03:35:00,67.6,51.0,29.57,East,94,3.0,-999.0,55,-99.99,,,0.00,weatherlink.com 1.10,2013-08-24 09:35:00,
2013-08-24 03:50:00,67.8,50.0,29.57,ESE,105,0.0,-999.0,53,-99.99,,,0.00,weatherlink.com 1.10,2013-08-24 09:50:00,
2013-08-24 04:05:00,67.6,51.0,29.58,ESE,105,0.0,-999.0,55,-99.99,,,0.00,weatherlink.com 1.10,2013-08-24 10:05:00,
2013-08-24 04:20:00,66.9,51.0,29.59,ESE,105,0.0,-999.0,56,-99.99,,,0.00,weatherlink.com 1.10,2013-08-24 10:20:00,
2013-08-24 04:35:00,66.4,52.0,29.60,South,179,2.0,-999.0,61,-99.99,,,0.00,weatherlink.com 1.10,2013-08-24 10:35:00,
2013-08-24 04:50:00,66.3,52.0,29.59,South,179,0.0,-999.0,61,-99.99,,,0.00,weatherlink.com 1.10,2013-08-24 10:50:00,
2013-08-24 05:05:00,66.3,52.0,29.59,South,179,0.0,-999.0,60,-99.99,,,0.00,weatherlink.com 1.10,2013-08-24 11:05:00,
2013-08-24 05:21:00,66.4,52.0,29.60,South,179,0.0,-999.0,61,-99.99,,,0.00,weatherlink.com 1.10,2013-08-24 11:21:00,
2013-08-24 05:36:00,65.8,53.0,29.60,South,179,0.0,-999.0,63,-99.99,,,0.00,weatherlink.com 1.10,2013-08-24 11:36:00,
2013-08-24 05:51:00,65.3,53.0,29.61,South,179,0.0,-999.0,64,-99.99,,,0.00,weatherlink.com 1.10,2013-08-24 11:51:00,
2013-08-24 06:06:00,64.8,53.0,29.62,South,179,0.0,-999.0,65,-99.99,,,0.00,weatherlink.com 1.10,2013-08-24 12:06:00,
2013-08-24 06:22:00,64.2,53.0,29.63,West,271,3.0,-999.0,66,-99.99,,,0.00,weatherlink.com 1.10,2013-08-24 12:22:00,
2013-08-24 06:36:00,64.5,52.0,29.65,West,271,0.0,-999.0,64,-99.99,,,0.00,weatherlink.com 1.10,2013-08-24 12:36:00,
2013-08-24 06:51:00,64.0,52.0,29.67,West,271,0.0,-999.0,65,-99.99,,,0.00,weatherlink.com 1.10,2013-08-24 12:51:00,
2013-08-24 07:06:00,63.5,52.0,29.67,West,271,0.0,-999.0,67,-99.99,,,0.00,weatherlink.com 1.10,2013-08-24 13:06:00,
2013-08-24 07:22:00,63.7,52.0,29.67,West,271,0.0,-999.0,67,-99.99,,,0.00,weatherlink.com 1.10,2013-08-24 13:22:00,
2013-08-24 07:36:00,64.5,52.0,29.69,West,271,2.0,-999.0,65,-99.99,,,0.00,weatherlink.com 1.10,2013-08-24 13:36:00,
2013-08-24 07:51:00,65.2,53.0,29.69,West,271,4.0,-999.0,65,-99.99,,,0.00,weatherlink.com 1.10,2013-08-24 13:51:00,
2013-08-24 08:07:00,65.5,53.0,29.69,West,271,0.0,-999.0,65,-99.99,,,0.00,weatherlink.com 1.10,2013-08-24 14:07:00,
2013-08-24 08:22:00,64.7,55.0,29.70,West,271,0.0,-999.0,70,-99.99,,,0.00,weatherlink.com 1.10,2013-08-24 14:22:00,
2013-08-24 08:37:00,65.6,53.0,29.74,West,271,0.0,-999.0,65,-99.99,,,0.00,weatherlink.com 1.10,2013-08-24 14:37:00,
2013-08-24 08:51:00,67.3,52.0,29.73,West,271,2.0,-999.0,59,-99.99,,,0.00,weatherlink.com 1.10,2013-08-24 14:51:00,
2013-08-24 09:07:00,68.8,52.0,29.74,West,271,0.0,-999.0,55,-99.99,,,0.00,weatherlink.com 1.10,2013-08-24 15:07:00,
2013-08-24 09:22:00,69.9,52.0,29.73,West,271,0.0,-999.0,54,-99.99,,,0.00,weatherlink.com 1.10,2013-08-24 15:22:00,
2013-08-24 09:38:00,71.3,53.0,29.73,West,271,2.0,-999.0,53,-99.99,,,0.00,weatherlink.com 1.10,2013-08-24 15:38:00,
2013-08-24 09:52:00,71.5,53.0,29.73,West,271,3.0,-999.0,52,-99.99,,,0.00,weatherlink.com 1.10,2013-08-24 15:52:00,
2013-08-24 10:07:00,71.8,52.0,29.73,West,271,0.0,-999.0,50,-99.99,,,0.00,weatherlink.com 1.10,2013-08-24 16:07:00,
2013-08-24 10:22:00,72.5,52.0,29.74,West,271,0.0,-999.0,49,-99.99,,,0.00,weatherlink.com 1.10,2013-08-24 16:22:00,
2013-08-24 10:38:00,73.0,51.0,29.74,West,271,2.0,-999.0,47,-99.99,,,0.00,weatherlink.com 1.10,2013-08-24 16:38:00,
2013-08-24 10:53:00,73.0,51.0,29.75,West,271,0.0,-999.0,47,-99.99,,,0.00,weatherlink.com 1.10,2013-08-24 16:53:00,
2013-08-24 11:09:00,73.0,51.0,29.75,West,271,0.0,-999.0,47,-99.99,,,0.00,weatherlink.com 1.10,2013-08-24 17:09:00,
2013-08-24 11:22:00,75.3,51.0,29.73,West,271,2.0,-999.0,43,-99.99,,,0.00,weatherlink.com 1.10,2013-08-24 17:22:00,
2013-08-24 11:37:00,75.3,49.0,29.75,West,271,0.0,-999.0,40,-99.99,,,0.00,weatherlink.com 1.10,2013-08-24 17:37:00,
2013-08-24 11:53:00,75.4,49.0,29.74,West,271,3.0,-999.0,39,-99.99,,,0.00,weatherlink.com 1.10,2013-08-24 17:53:00,
2013-08-24 12:08:00,75.4,49.0,29.74,West,271,4.0,-999.0,39,-99.99,,,0.00,weatherlink.com 1.10,2013-08-24 18:08:00,
2013-08-24 12:24:00,76.0,49.0,29.73,West,271,3.0,-999.0,38,-99.99,,,0.00,weatherlink.com 1.10,2013-08-24 18:24:00,
2013-08-24 12:39:00,76.7,49.0,29.73,West,271,4.0,-999.0,38,-99.99,,,0.00,weatherlink.com 1.10,2013-08-24 18:39:00,
2013-08-24 12:53:00,76.7,48.0,29.72,West,269,4.0,-999.0,36,-99.99,,,0.00,weatherlink.com 1.10,2013-08-24 18:53:00,
2013-08-24 13:08:00,77.0,46.0,29.71,West,269,2.0,-999.0,33,-99.99,,,0.00,weatherlink.com 1.10,2013-08-24 19:08:00,
2013-08-24 13:23:00,78.3,46.0,29.71,South,182,1.0,-999.0,32,-99.99,,,0.00,weatherlink.com 1.10,2013-08-24 19:23:00,
2013-08-24 13:39:00,78.8,47.0,29.70,ESE,119,4.0,-999.0,32,-99.99,,,0.00,weatherlink.com 1.10,2013-08-24 19:39:00,
2013-08-24 13:54:00,80.3,45.0,29.68,NNE,22,5.0,-999.0,29,-99.99,,,0.00,weatherlink.com 1.10,2013-08-24 19:54:00,
2013-08-24 14:10:00,79.0,45.0,29.68,South,178,1.0,-999.0,30,-99.99,,,0.00,weatherlink.com 1.10,2013-08-24 20:10:00,
2013-08-24 14:23:00,79.8,45.0,29.67,South,186,0.0,-999.0,29,-99.99,,,0.00,weatherlink.com 1.10,2013-08-24 20:23:00,
2013-08-24 14:39:00,79.9,45.0,29.67,WSW,257,4.0,-999.0,29,-99.99,,,0.00,weatherlink.com 1.10,2013-08-24 20:39:00,
2013-08-24 14:55:00,81.8,45.0,29.66,WSW,241,1.0,-999.0,27,-99.99,,,0.00,weatherlink.com 1.10,2013-08-24 20:55:00,
2013-08-24 15:10:00,82.2,46.0,29.64,WNW,300,0.0,-999.0,28,-99.99,,,0.00,weatherlink.com 1.10,2013-08-24 21:10:00,
2013-08-24 15:24:00,82.0,46.0,29.63,WNW,295,2.0,-999.0,28,-99.99,,,0.00,weatherlink.com 1.10,2013-08-24 21:24:00,
2013-08-24 15:39:00,82.8,46.0,29.62,WNW,284,5.0,-999.0,27,-99.99,,,0.00,weatherlink.com 1.10,2013-08-24 21:39:00,
2013-08-24 15:55:00,83.6,45.0,29.61,West,260,6.0,-999.0,26,-99.99,,,0.00,weatherlink.com 1.10,2013-08-24 21:55:00,
2013-08-24 16:10:00,82.4,45.0,29.62,WNW,283,0.0,-999.0,27,-99.99,,,0.00,weatherlink.com 1.10,2013-08-24 22:10:00,
2013-08-24 16:24:00,83.6,45.0,29.60,WNW,298,2.0,-999.0,26,-99.99,,,0.00,weatherlink.com 1.10,2013-08-24 22:24:00,
2013-08-24 16:40:00,83.8,45.0,29.59,North,359,0.0,-999.0,26,-99.99,,,0.00,weatherlink.com 1.10,2013-08-24 22:40:00,
2013-08-24 16:55:00,85.1,44.0,29.59,East,79,0.0,-999.0,24,-99.99,,,0.00,weatherlink.com 1.10,2013-08-24 22:55:00,
2013-08-24 17:10:00,83.4,45.0,29.59,SSW,196,0.0,-999.0,26,-99.99,,,0.00,weatherlink.com 1.10,2013-08-24 23:10:00,
2013-08-24 17:24:00,82.6,45.0,29.60,ESE,114,2.0,-999.0,27,-99.99,,,0.00,weatherlink.com 1.10,2013-08-24 23:24:00,
2013-08-24 17:40:00,75.1,57.0,29.61,SE,128,5.0,-999.0,53,-99.99,,,0.03,weatherlink.com 1.10,2013-08-24 23:40:00,
2013-08-24 17:55:00,64.7,58.0,29.72,ESE,118,12.0,-999.0,78,-99.99,,,0.12,weatherlink.com 1.10,2013-08-24 23:55:00,
2013-08-24 18:11:00,65.0,58.0,29.72,ENE,76,4.0,-999.0,79,-99.99,,,0.12,weatherlink.com 1.10,2013-08-25 00:11:00,
2013-08-24 18:26:00,65.2,59.0,29.70,North,8,4.0,-999.0,81,-99.99,,,0.12,weatherlink.com 1.10,2013-08-25 00:26:00,
2013-08-24 18:40:00,65.5,59.0,29.71,NNE,27,6.0,-999.0,79,-99.99,,,0.12,weatherlink.com 1.10,2013-08-25 00:40:00,
2013-08-24 18:55:00,65.8,59.0,29.70,NNE,13,4.0,-999.0,78,-99.99,,,0.12,weatherlink.com 1.10,2013-08-25 00:55:00,
2013-08-24 19:10:00,65.8,59.0,29.70,NNE,23,2.0,-999.0,79,-99.99,,,0.12,weatherlink.com 1.10,2013-08-25 01:10:00,
2013-08-24 19:25:00,65.5,59.0,29.70,North,8,4.0,-999.0,80,-99.99,,,0.12,weatherlink.com 1.10,2013-08-25 01:25:00,
2013-08-24 19:40:00,65.5,59.0,29.71,North,1,9.0,-999.0,79,-99.99,,,0.12,weatherlink.com 1.10,2013-08-25 01:40:00,
2013-08-24 19:55:00,65.2,59.0,29.71,North,359,4.0,-999.0,79,-99.99,,,0.12,weatherlink.com 1.10,2013-08-25 01:55:00,
2013-08-24 20:10:00,65.0,59.0,29.72,NNE,28,2.0,-999.0,80,-99.99,,,0.12,weatherlink.com 1.10,2013-08-25 02:10:00,
2013-08-24 20:25:00,64.3,59.0,29.74,North,1,6.0,-999.0,82,-99.99,,,0.12,weatherlink.com 1.10,2013-08-25 02:25:00,
2013-08-24 20:40:00,64.5,59.0,29.72,North,1,3.0,-999.0,82,-99.99,,,0.12,weatherlink.com 1.10,2013-08-25 02:40:00,
2013-08-24 20:55:00,64.7,59.0,29.74,North,1,5.0,-999.0,81,-99.99,,,0.12,weatherlink.com 1.10,2013-08-25 02:55:00,
2013-08-24 21:10:00,65.2,59.0,29.74,North,0,3.0,-999.0,79,-99.99,,,0.12,weatherlink.com 1.10,2013-08-25 03:10:00,
2013-08-24 21:25:00,66.1,58.0,29.73,NE,52,0.0,-999.0,74,-99.99,,,0.12,weatherlink.com 1.10,2013-08-25 03:25:00,
2013-08-24 21:40:00,66.3,58.0,29.73,NE,52,0.0,-999.0,75,-99.99,,,0.12,weatherlink.com 1.10,2013-08-25 03:40:00,
2013-08-24 21:55:00,65.6,58.0,29.74,NE,52,3.0,-999.0,76,-99.99,,,0.12,weatherlink.com 1.10,2013-08-25 03:55:00,
2013-08-24 22:10:00,65.6,57.0,29.74,ENE,68,0.0,-999.0,74,-99.99,,,0.12,weatherlink.com 1.10,2013-08-25 04:10:00,
2013-08-24 22:25:00,65.6,56.0,29.75,ENE,71,2.0,-999.0,70,-99.99,,,0.12,weatherlink.com 1.10,2013-08-25 04:25:00,
2013-08-24 22:40:00,65.3,56.0,29.74,ENE,60,4.0,-999.0,71,-99.99,,,0.12,weatherlink.com 1.10,2013-08-25 04:40:00,
2013-08-24 22:55:00,65.0,56.0,29.74,ENE,60,0.0,-999.0,73,-99.99,,,0.12,weatherlink.com 1.10,2013-08-25 04:55:00,
2013-08-24 23:10:00,64.5,56.0,29.75,NNE,29,0.0,-999.0,75,-99.99,,,0.12,weatherlink.com 1.10,2013-08-25 05:10:00,
2013-08-24 23:25:00,64.5,56.0,29.75,North,1,0.0,-999.0,75,-99.99,,,0.12,weatherlink.com 1.10,2013-08-25 05:25:00,
2013-08-24 23:40:00,63.9,57.0,29.74,NNE,15,5.0,-999.0,77,-99.99,,,0.12,weatherlink.com 1.10,2013-08-25 05:40:00,
2013-08-24 23:55:00,63.4,56.0,29.74,North,1,6.0,-999.0,78,-99.99,,,0.12,weatherlink.com 1.10,2013-08-25 05:55:00,